[Date Prev][Date Next][Thread Prev][Thread Next] - [Date Index][Thread Index][Author Index]
2 Line ISS Keps 4-19
- Subject: [sarex] 2 Line ISS Keps 4-19
- From: "Dave Larsen PhD" <doc@xxxxxxxxxxx>
- Date: Mon, 19 Apr 2004 03:59:21 -0700
ISS
1 25544U 98067A 04110.29342716 .00021275 00000-0 18879-3 0 6035
2 25544 51.6278 265.9203 0011143 48.1040 26.6774 15.68441499309077
----
Via the sarex mailing list at AMSAT.ORG courtesy of AMSAT-NA.
To unsubscribe, send "unsubscribe sarex" to Majordomo@amsat.org
AMSAT Home